Date String (YYYY-MM-DD hh:mm:ss) UTC,Instrument flags,Ambient pressure (hPa),Sample flow (lpm),Bypass flow (lpm),Sample temperature (°C),Ambient temperature (°C),ASC tube jacket temperature (°C),LED temperature (°C),Box temperature (°C),Sample RH (%),Span deviation,Mass concentration (μg/m³),Mass concentration (μg/m³),Mass concentration (μg/m³)
DateTimeUTC,F1_M11,P_M11,Q1_M11,Q2_M11,T1_M11,T2_M11,T3_M11,T4_M11,T5_M11,U1_M11,ZSPAN_M11,X0_M11,X2_M11,X1_M11
2021-09-12 05:00:00,,0830.5,5.01,0.00,29.1,27.0,00.0,38.3,30.8,22.7,0001.3,0017.43,0007.27,0005.72
2021-09-12 05:01:00,,0830.5,4.99,0.00,29.2,27.3,00.0,38.3,30.9,22.7,0001.6,0017.44,0007.28,0005.72
2021-09-12 05:02:00,,0830.5,5.00,0.00,29.2,27.6,00.0,38.3,30.9,22.7,0001.5,0016.35,0007.34,0005.72
2021-09-12 05:03:00,,0830.5,5.00,0.00,29.2,27.8,00.0,38.3,31.0,22.7,0001.7,0016.47,0007.35,0005.75
2021-09-12 05:04:00,,0830.5,5.00,0.00,29.2,28.0,00.0,38.3,31.1,22.7,0001.7,0016.80,0007.37,0005.77
2021-09-12 05:05:00,,0830.5,4.99,0.00,29.3,28.1,00.0,38.3,31.1,22.6,0001.7,0016.15,0007.33,0005.79
2021-09-12 05:06:00,,0830.6,5.01,0.00,29.3,28.3,00.0,38.3,31.2,22.6,0001.8,0016.02,0007.30,0005.79
2021-09-12 05:07:00,,0830.6,5.00,0.00,29.4,28.4,00.0,38.4,31.2,22.5,0002.2,0016.23,0007.37,0005.80
2021-09-12 05:08:00,,0830.6,4.99,0.00,29.4,28.5,00.0,38.4,31.3,22.2,0001.8,0016.20,0007.35,0005.79
2021-09-12 05:09:00,,0830.6,5.02,0.00,29.4,28.5,00.0,38.4,31.3,22.0,0001.6,0016.49,0007.35,0005.80
2021-09-12 05:10:00,,0830.6,5.00,0.00,29.5,28.6,00.0,38.4,31.3,21.9,0001.7,0016.34,0007.37,0005.81
2021-09-12 05:11:00,,0830.6,4.99,0.00,29.5,28.6,00.0,38.4,31.4,22.0,0002.0,0015.64,0007.35,0005.82
2021-09-12 05:12:00,,0830.6,5.00,0.00,29.5,27.3,00.0,38.4,31.0,22.0,0001.8,0015.85,0007.31,0005.82
2021-09-12 05:13:00,,0830.6,5.00,0.00,29.3,26.0,00.0,38.4,30.6,22.1,0002.1,0016.77,0007.28,0005.82
2021-09-12 05:14:00,,0830.6,4.99,0.00,29.2,26.1,00.0,38.4,30.6,22.1,0002.3,0016.76,0007.25,0005.80
2021-09-12 05:15:00,,0830.6,5.00,0.00,29.2,26.5,00.0,38.4,30.7,22.3,0002.4,0016.80,0007.24,0005.79
2021-09-12 05:16:00,,0830.6,5.01,0.00,29.1,26.9,00.0,38.3,30.8,22.3,0002.1,0016.87,0007.22,0005.80
2021-09-12 05:17:00,,0830.6,5.00,0.00,29.2,27.3,00.0,38.3,30.9,22.2,0002.0,0016.62,0007.22,0005.79
2021-09-12 05:18:00,,0830.6,4.98,0.00,29.2,27.5,00.0,38.3,31.0,22.3,0001.9,0016.32,0007.16,0005.76
2021-09-12 05:19:00,,0830.6,5.00,0.00,29.2,27.8,00.0,38.3,31.0,22.3,0002.1,0016.05,0007.10,0005.74
2021-09-12 05:20:00,,0830.6,4.99,0.00,29.3,28.0,00.0,38.3,31.1,22.3,0001.9,0015.47,0007.06,0005.73
2021-09-12 05:21:00,,0830.6,4.99,0.00,29.3,28.1,00.0,38.3,31.1,22.1,0001.8,0015.30,0007.01,0005.71
2021-09-12 05:22:00,,0830.6,5.01,0.00,29.3,28.3,00.0,38.4,31.2,22.0,0001.5,0016.05,0007.01,0005.71
2021-09-12 05:23:00,,0830.7,5.01,0.00,29.4,28.4,00.0,38.4,31.2,21.9,0001.7,0017.15,0007.05,0005.71
2021-09-12 05:24:00,,0830.7,5.00,0.00,29.4,28.5,00.0,38.4,31.3,21.9,0001.0,0016.88,0007.04,0005.73
2021-09-12 05:25:00,,0830.7,4.99,0.00,29.4,28.5,00.0,38.4,31.3,21.9,0000.6,0017.73,0007.09,0005.76
2021-09-12 05:26:00,,0830.7,5.00,0.00,29.5,28.6,00.0,38.4,31.4,21.8,0000.9,0018.28,0007.16,0005.79
2021-09-12 05:27:00,,0830.7,4.99,0.00,29.5,28.7,00.0,38.4,31.4,21.7,0001.2,0017.68,0007.22,0005.81
2021-09-12 05:28:00,,0830.6,5.02,0.00,29.6,28.7,00.0,38.5,31.4,21.7,0001.5,0017.91,0007.32,0005.85
2021-09-12 05:29:00,,0830.6,5.00,0.00,29.5,27.6,00.0,38.5,31.2,21.7,0001.2,0017.98,0007.32,0005.89
2021-09-12 05:30:00,,0830.6,5.01,0.00,29.4,26.2,00.0,38.5,30.8,21.8,0001.1,0018.22,0007.43,0005.94
2021-09-12 05:31:00,,0830.6,5.00,0.00,29.3,26.3,00.0,38.5,30.8,21.9,0001.0,0018.80,0007.50,0005.98
2021-09-12 05:32:00,,0830.6,5.00,0.00,29.3,26.6,00.0,38.4,30.9,22.0,0001.0,0019.09,0007.59,0006.03
2021-09-12 05:33:00,,0830.6,4.99,0.00,29.3,27.0,00.0,38.4,30.9,22.0,0001.1,0019.03,0007.65,0006.08
2021-09-12 05:34:00,,0830.6,5.01,0.00,29.2,27.3,00.0,38.4,31.0,22.0,0000.9,0018.26,0007.69,0006.11
2021-09-12 05:35:00,,0830.6,5.00,0.00,29.3,27.6,00.0,38.4,31.0,21.9,0001.1,0017.02,0007.70,0006.12
2021-09-12 05:36:00,,0830.6,4.99,0.00,29.3,27.8,00.0,38.4,31.1,21.9,0001.2,0016.21,0007.74,0006.12
2021-09-12 05:37:00,,0830.6,5.00,0.00,29.3,28.0,00.0,38.4,31.1,21.9,0001.1,0015.36,0007.73,0006.12
2021-09-12 05:38:00,,0830.6,5.00,0.00,29.3,28.2,00.0,38.4,31.2,21.8,0000.9,0016.10,0007.69,0006.13
2021-09-12 05:39:00,,0830.6,5.00,0.00,29.4,28.3,00.0,38.4,31.2,21.9,0000.8,0016.37,0007.60,0006.12
2021-09-12 05:40:00,,0830.6,4.99,0.00,29.4,28.4,00.0,38.4,31.3,21.9,0001.0,0016.73,0007.59,0006.13
2021-09-12 05:41:00,,0830.6,5.00,0.00,29.5,28.5,00.0,38.4,31.3,21.8,0001.0,0017.17,0007.59,0006.14
2021-09-12 05:42:00,,0830.6,5.01,0.00,29.5,28.6,00.0,38.5,31.3,21.9,0001.2,0017.00,0007.61,0006.16
2021-09-12 05:43:00,,0830.6,5.00,0.00,29.5,28.7,00.0,38.5,31.4,21.9,0001.4,0017.36,0007.62,0006.19
2021-09-12 05:44:00,,0830.6,4.99,0.00,29.6,28.8,00.0,38.5,31.4,21.8,0001.3,0017.22,0007.67,0006.22
2021-09-12 05:45:00,,0830.6,5.00,0.00,29.6,28.8,00.0,38.5,31.5,21.8,0001.2,0017.06,0007.70,0006.25
2021-09-12 05:46:00,,0830.6,5.00,0.00,29.6,27.9,00.0,38.5,31.2,21.9,0001.3,0017.46,0007.80,0006.30
2021-09-12 05:47:00,,0830.6,5.01,0.00,29.4,26.3,00.0,38.5,30.9,22.1,0001.4,0017.63,0007.91,0006.36
2021-09-12 05:48:00,,0830.5,5.01,0.00,29.4,26.3,00.0,38.5,30.8,22.2,0001.3,0017.90,0007.98,0006.42
2021-09-12 05:49:00,,0830.5,5.00,0.00,29.3,26.7,00.0,38.5,30.8,22.4,0001.2,0017.96,0008.09,0006.46
2021-09-12 05:50:00,,0830.5,5.01,0.00,29.3,27.0,00.0,38.4,30.9,22.6,0001.1,0017.71,0008.16,0006.49
2021-09-12 05:51:00,,0830.5,5.00,0.00,29.3,27.4,00.0,38.4,31.0,22.7,0000.5,0017.92,0008.22,0006.51
2021-09-12 05:52:00,,0830.5,5.00,0.00,29.3,27.7,00.0,38.4,31.0,22.9,0000.5,0017.05,0008.19,0006.51
2021-09-12 05:53:00,,0830.5,5.00,0.00,29.3,27.9,00.0,38.4,31.1,23.1,0000.3,0017.08,0008.19,0006.49
2021-09-12 05:54:00,,0830.6,4.99,0.00,29.4,28.1,00.0,38.4,31.2,23.0,0000.4,0017.08,0008.16,0006.46
2021-09-12 05:55:00,,0830.5,5.00,0.00,29.4,28.3,00.0,38.4,31.2,23.0,0000.8,0017.74,0008.14,0006.43
2021-09-12 05:56:00,,0830.5,5.00,0.00,29.4,28.4,00.0,38.5,31.3,23.0,0001.1,0018.19,0008.08,0006.38
2021-09-12 05:57:00,,0830.5,5.01,0.00,29.5,28.5,00.0,38.5,31.3,22.8,0001.0,0017.86,0008.00,0006.33
2021-09-12 05:58:00,,0830.5,5.00,0.00,29.5,28.6,00.0,38.5,31.3,22.7,0000.9,0017.60,0007.90,0006.26
2021-09-12 05:59:00,,0830.5,4.99,0.00,29.5,28.7,00.0,38.5,31.4,22.6,0000.6,0017.24,0007.80,0006.19
